[[{"header":{"parameterUnit":"m.s-1","parameterCategory":1,"la1":30.2991,"la2":30.254,"lo1":-89.0895,"lo2":-89.0444,"dy":0.0017,"dx":0.0017,"nx":28,"ny":28,"refTime":"2024-12-08T09:00:00:Z","depth":0,"parameterNumber":2,"parameterNumberName":"U-component_of_WINDS"},"data":[0,0,0,0,0,0,0,0,0,0,0,0,0,0,0,0,0,0,0,0,0,0,0,0,0,0,0,0,0,0,0,0,0,0,0,0,0,0,0,0,0,0,0,0,0,0,0,0,0,0,0,0,0,0,0,0,0,0,-2.3491,-2.3493,0,-2.3662,-2.3664,-2.3665,-2.3698,-2.3697,-2.3695,-2.3694,-2.3864,-2.387,-2.3875,0,0,0,0,0,0,0,0,0,0,0,0,0,-2.3187,-2.3193,-2.3491,-2.3493,-2.3495,-2.3661,-2.3664,-2.3666,-2.3698,-2.3697,-2.3695,-2.3693,-2.3862,-2.3869,-2.3876,0,0,0,0,0,0,0,0,0,0,0,0,0,-2.3335,-2.3195,-2.349,-2.3531,-2.3537,-2.3661,-2.3664,-2.3667,-2.3699,-2.3697,-2.3695,-2.3693,-2.386,-2.3868,-2.3877,-2.3971,0,0,-2.3903,-2.3907,0,0,0,0,0,0,0,0,-2.3326,-2.3346,-2.3523,-2.3529,-2.3535,-2.3657,-2.3619,-2.3768,-2.3699,-2.3637,-2.3694,-2.3692,-2.3796,-2.381,-2.3846,-2.3979,-2.3986,-2.3904,-2.3909,-2.3913,-2.3916,0,0,0,0,0,0,0,-2.3316,-2.3338,-2.3558,-2.3525,-2.3533,-2.3539,-2.3558,-2.3648,-2.3726,-2.3642,-2.3645,-2.3665,-2.3799,-2.3838,-2.3851,-2.3989,-2.3904,-2.3912,-2.3917,-2.392,-2.4206,-2.4208,0,0,0,0,0,0,-2.3299,-2.333,-2.3553,-2.3563,-2.3424,-2.3546,-2.3567,-2.3619,-2.3725,-2.3739,-2.3667,-2.3666,-2.3824,-2.384,-2.3857,-2.3973,-2.3913,-2.3921,-2.3926,-2.4203,-2.4206,-2.4209,0,0,0,0,0,0,-2.3292,-2.3319,-2.3546,-2.3447,-2.3477,-2.3554,-2.3612,-2.3624,-2.3663,-2.3743,-2.3757,-2.3692,-2.3823,-2.3845,-2.3942,-2.398,-2.3925,-2.3933,-2.4201,-2.4204,-2.4207,-2.4207,0,0,0,0,0,0,-2.3284,-2.3316,-2.3354,-2.3448,-2.3482,-2.363,-2.3614,-2.3629,-2.3678,-2.3679,-2.3771,-2.3784,-2.3823,-2.3929,-2.3951,-2.3991,-2.394,-2.4197,-2.4202,-2.4206,-2.4204,-2.421,-2.4216,0,0,0,0,0,-2.3273,-2.3346,-2.3356,-2.3382,-2.3531,-2.3632,-2.3651,-2.3696,-2.3681,-2.3719,-2.377,-2.3781,-2.3972,-2.3939,-2.3964,-2.4006,-2.4195,-2.4201,-2.4206,-2.4202,-2.4209,-2.4215,0,0,0,0,0,0,-2.3252,-2.3359,-2.3371,-2.3477,-2.3546,-2.3638,-2.3687,-2.3703,-2.3776,-2.3773,-2.3824,-2.3844,-2.3939,-2.3983,-2.3944,-2.4103,-2.4083,-2.4093,-2.4071,-2.4079,-2.4084,-2.4071,-2.3947,0,0,0,0,0,-2.3261,-2.3336,-2.3424,-2.3509,-2.3543,-2.3609,-2.3655,-2.3683,-2.3756,-2.3784,-2.3843,-2.3911,-2.3986,-2.4035,-2.4109,-2.4211,-2.4231,-2.4252,-2.4258,-2.4262,-2.427,-2.4327,-2.4337,-2.4226,-2.4226,-2.4226,0,0,-2.3278,-2.3345,-2.3389,-2.3507,-2.3563,-2.3638,-2.3633,-2.3712,-2.3768,-2.3796,-2.3892,-2.3938,-2.4017,-2.4117,-2.4164,-2.4156,-2.4305,-2.4269,-2.4272,-2.4278,-2.4333,-2.4344,-2.4353,-2.423,-2.4229,-2.4229,0,0,-2.3347,-2.3406,-2.3484,-2.3541,-2.3627,-2.367,-2.3688,-2.3778,-2.381,-2.3908,-2.393,-2.3996,-2.4125,-2.418,-2.4226,-2.4316,-2.4328,-2.4338,-2.4368,-2.4422,-2.4431,-2.4439,-2.447,-2.4481,-2.4346,-2.4346,-2.4346,0,-2.3357,-2.3473,-2.3521,-2.36,-2.365,-2.3681,-2.3758,-2.381,-2.3915,-2.3949,-2.3939,-2.4101,-2.4157,-2.427,-2.4292,-2.4328,-2.4349,-2.4328,-2.4426,-2.4434,-2.4442,-2.4473,-2.4485,-2.4347,-2.4347,-2.4347,-2.4347,0,-2.348,-2.356,-2.3612,-2.3714,-2.377,-2.3848,-2.3907,-2.3957,-2.3981,-2.4025,-2.4123,-2.4191,-2.4279,-2.4308,-2.4331,-2.4425,-2.4417,-2.4416,-2.4397,-2.4453,-2.4482,-2.4494,-2.4348,-2.4348,-2.4348,-2.4347,0,0,-2.3542,-2.367,-2.3688,-2.3735,-2.3832,-2.3893,-2.3972,-2.4059,-2.4102,-2.4173,-2.4239,-2.4347,-2.4347,-2.4398,-2.4428,-2.4476,-2.4542,-2.4469,-2.4471,-2.4479,-2.4648,-2.4647,-2.466,-2.4551,-2.4553,-2.4555,-2.4641,0,-2.3622,-2.3766,-2.3811,-2.393,-2.4003,-2.4032,-2.4101,-2.4166,-2.4209,-2.4276,-2.4323,-2.4399,-2.4393,-2.4424,-2.4473,-2.4523,-2.4576,-2.4518,-2.4611,-2.4614,-2.459,-2.4676,-2.4676,-2.4754,-2.4653,-2.4655,-2.4656,0,-2.3736,-2.381,-2.3937,-2.4024,-2.4057,-2.4118,-2.4201,-2.4266,-2.434,-2.4368,-2.4425,-2.4451,-2.4532,-2.4509,-2.4621,-2.458,-2.4621,-2.4652,-2.4656,-2.4666,-2.4638,-2.4687,-2.478,-2.4791,-2.4675,-2.4673,-2.4672,0,-2.3767,-2.3899,-2.3992,-2.4031,-2.4135,-2.4177,-2.4222,-2.4295,-2.4345,-2.4417,-2.4449,-2.453,-2.4573,-2.4634,-2.468,-2.4659,-2.4788,-2.4769,-2.4812,-2.4811,-2.4837,-2.4835,-2.4937,-2.4865,-2.4864,-2.4864,-2.4864,0,-2.3852,-2.3928,-2.4007,-2.4064,-2.4149,-2.42,-2.4283,-2.4329,-2.4394,-2.4459,-2.4489,-2.4549,-2.4607,-2.4674,-2.471,-2.4797,-2.4817,-2.484,-2.4849,-2.4837,-2.4834,-2.4864,-2.486,-2.4867,-2.4867,-2.4866,-2.4865,0,-2.3901,-2.3958,-2.406,-2.4151,-2.4176,-2.4235,-2.4311,-2.4367,-2.4411,-2.4493,-2.4515,-2.4584,-2.4664,-2.4717,-2.4819,-2.4844,-2.4938,-2.4946,-2.4913,-2.4917,-2.4958,-2.4953,-2.5082,-2.5101,-2.5016,-2.5017,-2.5018,0,-2.3952,-2.4011,-2.4108,-2.4155,-2.4201,-2.4275,-2.4326,-2.4378,-2.443,-2.4519,-2.4564,-2.4647,-2.4716,-2.4843,-2.4901,-2.4979,-2.4989,-2.5028,-2.5,-2.4987,-2.4988,-2.4984,-2.4989,-2.5032,-2.5033,-2.5034,-2.5034,0,-2.4035,-2.406,-2.4133,-2.4216,-2.4277,-2.4344,-2.4411,-2.4447,-2.451,-2.4567,-2.465,-2.4704,-2.481,-2.4891,-2.4975,-2.5019,-2.5037,-2.5043,-2.5057,-2.5045,-2.5024,-2.5035,-2.4925,-2.5039,-2.5039,-2.5038,-2.5038,-2.5038,-2.4086,-2.414,-2.4217,-2.4297,-2.4354,-2.4416,-2.4472,-2.4524,-2.4595,-2.4686,-2.4712,-2.4799,-2.4871,-2.4986,-2.5032,-2.51,-2.5095,-2.5115,-2.512,-2.5124,-2.5124,-2.5014,-2.5115,-2.5115,-2.5115,-2.5115,-2.5115,0,-2.417,-2.4221,-2.4294,-2.4388,-2.4451,-2.4464,-2.4539,-2.459,-2.4667,-2.4734,-2.4802,-2.4898,-2.4977,-2.5041,-2.5122,-2.5164,-2.5174,-2.5184,-2.5181,-2.519,-2.5125,-2.5104,-2.5174,-2.5174,-2.5174,-2.5174,-2.5174,-2.5174,-2.4221,-2.4312,-2.4346,-2.4466,-2.4516,-2.4603,-2.4644,-2.4701,-2.4755,-2.4861,-2.4928,-2.497,-2.5035,-2.5121,-2.5194,-2.5211,-2.5239,-2.5247,-2.5265,-2.5202,-2.5195,-2.5189,-2.517,-2.5253,-2.5253,-2.5325,-2.5326,-2.5326]},{"header":{"parameterUnit":"m.s-1","parameterCategory":1,"la1":30.2991,"la2":30.254,"lo1":-89.0895,"lo2":-89.0444,"dy":0.0017,"dx":0.0017,"nx":28,"ny":28,"refTime":"2024-12-08T09:00:00:Z","depth":0,"parameterNumber":3,"parameterNumberName":"V-component_of_WINDS"},"data":[0,0,0,0,0,0,0,0,0,0,0,0,0,0,0,0,0,0,0,0,0,0,0,0,0,0,0,0,0,0,0,0,0,0,0,0,0,0,0,0,0,0,0,0,0,0,0,0,0,0,0,0,0,0,0,0,0,0,3.2993,3.299,0,3.2694,3.2691,3.2687,3.2521,3.252,3.252,3.2519,3.2202,3.2195,3.2187,0,0,0,0,0,0,0,0,0,0,0,0,0,3.3413,3.3406,3.2994,3.299,3.2986,3.2695,3.2691,3.2687,3.2521,3.252,3.252,3.2519,3.2205,3.2196,3.2186,0,0,0,0,0,0,0,0,0,0,0,0,0,3.3184,3.3404,3.2994,3.2869,3.2854,3.2696,3.2691,3.2685,3.2521,3.252,3.2519,3.2519,3.2208,3.2197,3.2185,3.2125,0,0,3.2148,3.2143,0,0,0,0,0,0,0,0,3.3197,3.3169,3.2891,3.2877,3.2861,3.2644,3.2722,3.2497,3.2521,3.2647,3.2519,3.2518,3.2349,3.2326,3.2271,3.211,3.2096,3.2147,3.214,3.2135,3.2131,0,0,0,0,0,0,0,3.3213,3.318,3.2875,3.2887,3.2868,3.2824,3.2791,3.2679,3.2505,3.2636,3.2623,3.2591,3.2341,3.2283,3.2262,3.2092,3.2147,3.2137,3.2129,3.2125,3.1868,3.1868,0,0,0,0,0,0,3.325,3.3195,3.2884,3.2866,3.3031,3.2817,3.278,3.2714,3.2506,3.2474,3.2592,3.2584,3.2304,3.2276,3.225,3.2167,3.2135,3.2123,3.2117,3.1867,3.1868,3.1868,0,0,0,0,0,0,3.326,3.3224,3.2896,3.3027,3.2982,3.2811,3.2738,3.2709,3.265,3.2473,3.244,3.2565,3.2302,3.2267,3.2158,3.2154,3.2118,3.2107,3.1867,3.1868,3.1868,3.2,0,0,0,0,0,0,3.3273,3.3229,3.3206,3.3028,3.2976,3.2812,3.2738,3.2703,3.2632,3.2619,3.2439,3.2408,3.2299,3.2177,3.2147,3.2136,3.2098,3.1867,3.1867,3.1868,3.1995,3.2005,3.2014,0,0,0,0,0,3.3288,3.3252,3.3206,3.3169,3.2944,3.2812,3.2782,3.266,3.2632,3.2606,3.2493,3.2414,3.216,3.2167,3.2131,3.2118,3.1866,3.1867,3.1868,3.1991,3.2003,3.2013,0,0,0,0,0,0,3.343,3.3226,3.3172,3.3078,3.2965,3.2785,3.2748,3.2676,3.2564,3.2557,3.2407,3.2367,3.2273,3.2184,3.2196,3.205,3.2004,3.1998,3.2111,3.2121,3.213,3.2152,3.2088,0,0,0,0,0,3.3451,3.3364,3.319,3.3123,3.307,3.292,3.2858,3.2774,3.2648,3.2598,3.2476,3.2354,3.2247,3.2179,3.207,3.1983,3.194,3.1956,3.1965,3.1973,3.1969,3.1916,3.1921,3.1871,3.1871,3.1871,0,0,3.3492,3.337,3.3323,3.3149,3.3051,3.2962,3.288,3.2788,3.272,3.2582,3.2473,3.2381,3.2234,3.2137,3.2087,3.206,3.1974,3.1974,3.1982,3.1973,3.1918,3.1923,3.1927,3.1872,3.1871,3.1871,0,0,3.3521,3.3421,3.3355,3.326,3.3115,3.3015,3.3001,3.2832,3.2766,3.2655,3.2551,3.2466,3.2285,3.2185,3.2111,3.2108,3.2031,3.2077,3.2123,3.2074,3.2078,3.208,3.2079,3.208,3.2073,3.2073,3.2074,0,3.3589,3.3454,3.333,3.3246,3.3172,3.3049,3.298,3.2892,3.2717,3.2668,3.2641,3.2412,3.2305,3.2183,3.2183,3.2127,3.2103,3.2095,3.2088,3.2089,3.209,3.2086,3.2086,3.208,3.2079,3.2079,3.2078,0,3.3545,3.3453,3.3417,3.3257,3.3178,3.3103,3.2965,3.2901,3.2825,3.2729,3.2618,3.2486,3.2349,3.2314,3.2237,3.2181,3.2169,3.2117,3.2068,3.2103,3.2097,3.2095,3.2089,3.2087,3.2085,3.2083,0,0,3.365,3.3426,3.3415,3.3342,3.3174,3.3099,3.3017,3.2888,3.2836,3.272,3.2646,3.2498,3.245,3.2366,3.2277,3.2235,3.2241,3.2187,3.2181,3.2201,3.217,3.221,3.2211,3.219,3.2189,3.2189,3.2182,0,3.3655,3.3507,3.3395,3.3288,3.3201,3.3085,3.3014,3.2902,3.2811,3.2722,3.2619,3.2516,3.2461,3.241,3.2362,3.225,3.2232,3.2249,3.2118,3.2114,3.2157,3.2207,3.2248,3.2248,3.2179,3.2179,3.2179,0,3.3639,3.3533,3.3419,3.3263,3.3223,3.3161,3.3035,3.2952,3.2823,3.2759,3.2669,3.2578,3.2485,3.2448,3.2317,3.2331,3.2271,3.2208,3.2205,3.2186,3.2148,3.2189,3.2245,3.2245,3.2174,3.2174,3.2175,0,3.3728,3.3556,3.3466,3.3407,3.3222,3.3182,3.3103,3.2973,3.2904,3.2792,3.2745,3.2623,3.2556,3.2463,3.2341,3.2325,3.2222,3.2174,3.2164,3.2168,3.2146,3.2149,3.2193,3.211,3.211,3.211,3.211,0,3.3743,3.3678,3.3504,3.3449,3.3372,3.3243,3.317,3.308,3.2967,3.289,3.2781,3.2711,3.2555,3.2466,3.237,3.2276,3.2246,3.219,3.2165,3.2199,3.2206,3.2156,3.2152,3.211,3.211,3.211,3.211,0,3.3828,3.3709,3.3603,3.344,3.3397,3.3348,3.3206,3.3147,3.3052,3.2956,3.2926,3.2775,3.2664,3.2535,3.238,3.2315,3.2229,3.2192,3.2274,3.2259,3.2256,3.2258,3.2268,3.2262,3.2187,3.2188,3.2189,0,3.3845,3.3793,3.3626,3.3569,3.3494,3.3403,3.3333,3.3205,3.3136,3.2987,3.2945,3.2828,3.2726,3.2554,3.2428,3.231,3.2269,3.2281,3.2249,3.2286,3.2267,3.2272,3.2266,3.2288,3.229,3.2291,3.2292,0,3.3888,3.3833,3.3738,3.3624,3.3544,3.3447,3.3344,3.3303,3.3153,3.3081,3.2969,3.2891,3.2736,3.2619,3.2486,3.24,3.232,3.2304,3.2294,3.2328,3.2377,3.235,3.2295,3.2303,3.2302,3.2301,3.23,3.23,3.3937,3.3887,3.3763,3.3661,3.3572,3.348,3.3417,3.3316,3.3222,3.3089,3.3018,3.2907,3.278,3.2593,3.2511,3.2421,3.2393,3.2381,3.2377,3.2376,3.2386,3.2394,3.2396,3.2395,3.2395,3.2395,3.2394,0,3.3974,3.389,3.3799,3.3661,3.3582,3.3519,3.3403,3.3339,3.3245,3.3135,3.304,3.2911,3.2799,3.2667,3.2545,3.2498,3.2458,3.247,3.2471,3.2453,3.2417,3.2437,3.2504,3.2504,3.2504,3.2504,3.2504,3.2504,3.3984,3.3895,3.3826,3.3692,3.3606,3.3501,3.344,3.3354,3.3266,3.313,3.3037,3.2954,3.2834,3.2704,3.2597,3.2561,3.252,3.2543,3.2496,3.2465,3.2455,3.2446,3.2464,3.2536,3.2536,3.2538,3.2538,3.2538]}]]